Location: Hohenfelde
(53.8441°N, 9.6220°E)
Time: 12:05:35
(UTC+00:00)

UNK - Pass Details

Date: 14 July 2020
Orbit: 667 x 685 km, 98.1° (Epoch: 10 August)

Event Time Altitude Azimuth Distance (km) Brightness Sun altitude
Exits shadow 01:33:04 12° 195° (SSW) 1,960 5.5 -9.8°
Maximum altitude 01:37:00 39° 263° (W) 1,011 4.4 -9.5°
Drops below altitude 10° 01:41:23 10° 333° (NNW) 2,132 6.8 -9.2°
Sets 01:43:46 0° 341° (NNW) 3,055 7.7 -9.0°
